[[{"header":{"parameterUnit":"m.s-1","parameterCategory":1,"la1":30.2991,"la2":30.254,"lo1":-89.0895,"lo2":-89.0444,"dy":0.0017,"dx":0.0017,"nx":28,"ny":28,"refTime":"2023-07-24T21:00:00:Z","depth":0,"parameterNumber":2,"parameterNumberName":"U-component_of_WINDS"},"data":[0,0,0,0,0,0,0,0,0,0,0,0,0,0,0,0,0,0,0,0,0,0,0,0,0,0,0,0,0,0,0,0,0,0,0,0,0,0,0,0,0,0,0,0,0,0,0,0,0,0,0,0,0,0,0,0,0,0,0.8328,0.833,0,0.853,0.8533,0.8535,0.8581,0.8579,0.8578,0.8576,0.8788,0.8795,0.8802,0,0,0,0,0,0,0,0,0,0,0,0,0,0.7981,0.7987,0.8328,0.833,0.8333,0.853,0.8533,0.8536,0.8581,0.8579,0.8577,0.8576,0.8786,0.8794,0.8802,0,0,0,0,0,0,0,0,0,0,0,0,0,0.8153,0.7989,0.8327,0.8379,0.8386,0.8529,0.8533,0.8536,0.8581,0.8579,0.8577,0.8575,0.8783,0.8793,0.8803,0.8911,0,0,0.8835,0.884,0,0,0,0,0,0,0,0,0.8143,0.8165,0.8369,0.8376,0.8383,0.8528,0.8488,0.8662,0.8582,0.8507,0.8576,0.8574,0.8703,0.872,0.8763,0.8921,0.893,0.8836,0.8843,0.8847,0.885,0,0,0,0,0,0,0,0.8131,0.8157,0.8408,0.8372,0.8381,0.8393,0.8415,0.8521,0.8615,0.8513,0.8517,0.854,0.8707,0.8753,0.8768,0.8933,0.8836,0.8845,0.8852,0.8856,0.9187,0.9189,0,0,0,0,0,0,0.811,0.8147,0.8402,0.8414,0.8255,0.84,0.8425,0.8484,0.8614,0.8632,0.8542,0.8542,0.8736,0.8756,0.8776,0.8909,0.8847,0.8857,0.8863,0.9184,0.9187,0.919,0,0,0,0,0,0,0.8102,0.8132,0.8393,0.8281,0.8316,0.8409,0.8474,0.8489,0.8535,0.8635,0.8653,0.8572,0.8735,0.8761,0.8876,0.8917,0.8861,0.8871,0.9181,0.9185,0.9189,0.9176,0,0,0,0,0,0,0.8092,0.8129,0.8171,0.8282,0.8321,0.849,0.8477,0.8494,0.8552,0.8554,0.8668,0.8685,0.8736,0.886,0.8887,0.893,0.8879,0.9178,0.9183,0.9187,0.9173,0.9179,0.9184,0,0,0,0,0,0.8079,0.8161,0.8173,0.8203,0.8375,0.8492,0.8515,0.857,0.8555,0.8598,0.8662,0.8681,0.8908,0.8872,0.8902,0.8949,0.9176,0.9182,0.9187,0.9171,0.9178,0.9184,0,0,0,0,0,0,0.8054,0.8176,0.8191,0.8311,0.839,0.8499,0.8555,0.8576,0.8663,0.8661,0.8728,0.8753,0.8863,0.8918,0.8875,0.9059,0.9041,0.9053,0.9019,0.9026,0.9031,0.9016,0.8888,0,0,0,0,0,0.8062,0.8145,0.8248,0.8344,0.8383,0.8462,0.8515,0.855,0.8636,0.8671,0.8743,0.8827,0.8916,0.8975,0.9063,0.9181,0.9206,0.9228,0.9234,0.9237,0.9247,0.9311,0.9322,0.9209,0.9209,0.9208,0,0,0.808,0.8157,0.8206,0.8341,0.8407,0.8491,0.849,0.8581,0.8645,0.8685,0.8797,0.8853,0.895,0.9066,0.9121,0.9115,0.9283,0.9245,0.9247,0.9255,0.9318,0.9329,0.9338,0.9212,0.9212,0.9211,0,0,0.8156,0.8223,0.8309,0.8374,0.8473,0.8524,0.8544,0.865,0.8688,0.8801,0.8832,0.8909,0.9063,0.9131,0.9185,0.9282,0.9302,0.931,0.9337,0.9399,0.9408,0.9416,0.9449,0.946,0.9319,0.9319,0.9319,0,0.8166,0.8295,0.835,0.8439,0.8496,0.8534,0.8621,0.8682,0.8806,0.8844,0.8836,0.9027,0.9096,0.9227,0.925,0.9294,0.9318,0.9297,0.9402,0.941,0.9419,0.9451,0.9464,0.9319,0.9319,0.9319,0.9319,0,0.8301,0.839,0.8447,0.8563,0.8627,0.8714,0.8783,0.8841,0.887,0.8922,0.9036,0.9119,0.9223,0.9257,0.9288,0.9392,0.9385,0.9388,0.9372,0.9429,0.946,0.9473,0.9319,0.9319,0.9319,0.9319,0,0,0.8368,0.8511,0.8531,0.8583,0.8693,0.8763,0.8851,0.8952,0.9,0.9083,0.9158,0.9286,0.9288,0.9349,0.9388,0.9442,0.9511,0.9439,0.9442,0.9448,0.9629,0.9625,0.9639,0.9525,0.9528,0.953,0.962,0,0.8457,0.8614,0.8666,0.8797,0.8879,0.8914,0.8991,0.9067,0.9117,0.9194,0.9251,0.9339,0.9337,0.9374,0.9429,0.9491,0.9548,0.9485,0.9595,0.9598,0.9569,0.9655,0.9653,0.9734,0.9633,0.9635,0.9637,0,0.8581,0.8663,0.8802,0.8899,0.8936,0.9004,0.9098,0.9171,0.9258,0.929,0.9357,0.939,0.9483,0.9461,0.959,0.9546,0.9593,0.963,0.9635,0.9647,0.9621,0.9669,0.9762,0.9773,0.9657,0.9655,0.9654,0,0.8614,0.876,0.8861,0.8904,0.9021,0.9067,0.9118,0.9202,0.9258,0.9341,0.9378,0.9472,0.9523,0.9594,0.9651,0.963,0.9774,0.9757,0.9803,0.9802,0.9832,0.9829,0.9933,0.9864,0.9864,0.9864,0.9863,0,0.8707,0.879,0.8877,0.8939,0.9032,0.909,0.9181,0.9235,0.9308,0.9381,0.9419,0.9486,0.9558,0.9635,0.9681,0.9779,0.9802,0.9831,0.9842,0.9827,0.9823,0.9859,0.9855,0.9867,0.9866,0.9866,0.9865,0,0.8759,0.8821,0.8933,0.9033,0.906,0.9125,0.9211,0.9272,0.9323,0.9414,0.9439,0.952,0.9612,0.9676,0.9795,0.9825,0.9931,0.9942,0.9901,0.9907,0.9948,0.9943,1.0078,1.0098,1.0016,1.0017,1.0018,0,0.8814,0.8878,0.8984,0.9035,0.9085,0.9167,0.9223,0.9282,0.934,0.9441,0.949,0.9584,0.9662,0.9808,0.9877,0.9968,0.9981,1.0021,0.9995,0.9977,0.9979,0.9974,0.998,1.0026,1.0026,1.0027,1.0027,0,0.8904,0.893,0.901,0.9099,0.9165,0.9239,0.9313,0.9352,0.9424,0.9487,0.958,0.9641,0.9761,0.9853,0.995,1.0003,1.0027,1.0035,1.005,1.0035,1.0008,1.0021,0.9911,1.0031,1.0031,1.0031,1.003,1.003,0.8959,0.9016,0.9099,0.9185,0.9247,0.9314,0.9376,0.9433,0.9512,0.9613,0.9643,0.974,0.9822,0.9954,1.0008,1.0085,1.0082,1.0104,1.011,1.0114,1.0113,0.9996,1.0103,1.0103,1.0103,1.0103,1.0103,0,0.9049,0.9103,0.9182,0.9283,0.9351,0.9365,0.9447,0.9503,0.9587,0.9662,0.9737,0.9843,0.9932,1.0007,1.01,1.0146,1.0159,1.0168,1.0165,1.0176,1.0111,1.0088,1.0156,1.0156,1.0156,1.0156,1.0156,1.0156,0.9104,0.9201,0.9237,0.9365,0.9419,0.9512,0.9558,0.962,0.9679,0.9795,0.9869,0.9917,0.9991,1.0088,1.017,1.019,1.0222,1.0228,1.025,1.0188,1.0181,1.0176,1.0154,1.0235,1.0235,1.0309,1.031,1.031]},{"header":{"parameterUnit":"m.s-1","parameterCategory":1,"la1":30.2991,"la2":30.254,"lo1":-89.0895,"lo2":-89.0444,"dy":0.0017,"dx":0.0017,"nx":28,"ny":28,"refTime":"2023-07-24T21:00:00:Z","depth":0,"parameterNumber":3,"parameterNumberName":"V-component_of_WINDS"},"data":[0,0,0,0,0,0,0,0,0,0,0,0,0,0,0,0,0,0,0,0,0,0,0,0,0,0,0,0,0,0,0,0,0,0,0,0,0,0,0,0,0,0,0,0,0,0,0,0,0,0,0,0,0,0,0,0,0,0,2.9679,2.9678,0,2.9606,2.9605,2.9604,2.9598,2.9599,2.96,2.9601,2.9518,2.9515,2.9512,0,0,0,0,0,0,0,0,0,0,0,0,0,2.9805,2.9803,2.9679,2.9678,2.9677,2.9606,2.9605,2.9604,2.9598,2.9599,2.96,2.9601,2.9519,2.9516,2.9512,0,0,0,0,0,0,0,0,0,0,0,0,0,2.9743,2.9802,2.9679,2.9666,2.9664,2.9606,2.9605,2.9604,2.9598,2.9599,2.96,2.9602,2.952,2.9516,2.9512,2.946,0,0,2.9498,2.9496,0,0,0,0,0,0,0,0,2.9746,2.9738,2.9669,2.9667,2.9664,2.9613,2.9619,2.9555,2.9598,2.9623,2.9601,2.9602,2.9548,2.9541,2.9525,2.9456,2.9452,2.9498,2.9495,2.9493,2.9492,0,0,0,0,0,0,0,2.9751,2.9741,2.965,2.9667,2.9665,2.9661,2.9653,2.9607,2.9579,2.9621,2.962,2.9612,2.9547,2.9529,2.9523,2.9451,2.9498,2.9494,2.9491,2.9489,2.9334,2.9333,0,0,0,0,0,0,2.9759,2.9745,2.9652,2.9647,2.9709,2.9658,2.9649,2.9628,2.958,2.9574,2.9611,2.9612,2.9536,2.9528,2.952,2.9455,2.9493,2.9489,2.9486,2.9335,2.9334,2.9332,0,0,0,0,0,0,2.9761,2.975,2.9655,2.9696,2.9684,2.9654,2.963,2.9626,2.9608,2.9573,2.9567,2.9598,2.9537,2.9526,2.9475,2.9452,2.9487,2.9483,2.9337,2.9335,2.9333,2.9325,0,0,0,0,0,0,2.9765,2.9751,2.9733,2.9696,2.9682,2.9614,2.9629,2.9623,2.9601,2.9602,2.9559,2.9553,2.9537,2.9482,2.9471,2.9446,2.948,2.9339,2.9336,2.9334,2.9327,2.9323,2.9319,0,0,0,0,0,2.977,2.9733,2.9732,2.9721,2.9659,2.9612,2.9604,2.9588,2.96,2.958,2.9557,2.9554,2.9457,2.9476,2.9464,2.9438,2.934,2.9337,2.9334,2.9329,2.9324,2.9319,0,0,0,0,0,0,2.9765,2.9727,2.9727,2.9677,2.9648,2.9612,2.9586,2.9583,2.9549,2.955,2.953,2.952,2.9469,2.9449,2.9471,2.9384,2.9399,2.9393,2.94,2.9395,2.9391,2.9396,2.9476,0,0,0,0,0,2.9759,2.9727,2.9695,2.9654,2.964,2.9616,2.9595,2.9586,2.9554,2.9541,2.9514,2.9481,2.9443,2.9418,2.9381,2.9325,2.9314,2.93,2.9297,2.9293,2.9288,2.9255,2.9248,2.9321,2.9321,2.9321,0,0,2.9745,2.972,2.9701,2.9653,2.9629,2.9594,2.9605,2.9568,2.954,2.9534,2.9485,2.9464,2.9425,2.9371,2.9346,2.9352,2.9266,2.9289,2.9287,2.9283,2.9251,2.9244,2.9238,2.9319,2.9319,2.932,0,0,2.9701,2.968,2.9644,2.962,2.9586,2.957,2.9561,2.9525,2.9511,2.9462,2.9456,2.9422,2.9357,2.933,2.9307,2.9253,2.9249,2.9241,2.9219,2.9188,2.9182,2.9177,2.9155,2.9148,2.9236,2.9236,2.9236,0,2.9687,2.9637,2.9624,2.9587,2.9565,2.956,2.9521,2.9498,2.9452,2.9436,2.9444,2.9362,2.9336,2.9275,2.9262,2.9244,2.9231,2.9245,2.9184,2.9179,2.9174,2.9153,2.9145,2.9235,2.9235,2.9235,2.9236,0,2.962,2.9585,2.9559,2.9518,2.9492,2.9454,2.9434,2.9409,2.9402,2.9385,2.9333,2.9302,2.9258,2.9243,2.9234,2.918,2.9185,2.9189,2.9203,2.9166,2.9146,2.9139,2.9234,2.9234,2.9235,2.9235,0,0,2.9571,2.9524,2.9514,2.9495,2.9456,2.9427,2.9388,2.9348,2.9326,2.9294,2.9259,2.9204,2.9208,2.9183,2.9171,2.9143,2.91,2.9151,2.9149,2.9141,2.9036,2.9032,2.9023,2.9098,2.9097,2.9095,2.9038,0,2.9521,2.9455,2.9442,2.9383,2.9349,2.9344,2.9309,2.928,2.9263,2.9229,2.9209,2.917,2.9179,2.9163,2.9136,2.9112,2.9079,2.9116,2.9062,2.9061,2.9071,2.9013,2.9009,2.8957,2.9031,2.903,2.9029,0,2.9455,2.9424,2.9362,2.9328,2.9313,2.9282,2.9244,2.9213,2.9179,2.9168,2.914,2.9131,2.9087,2.9105,2.9043,2.9069,2.9046,2.9031,2.9028,2.9021,2.9041,2.9003,2.894,2.8931,2.9017,2.9018,2.9019,0,2.9423,2.9366,2.9321,2.9305,2.9264,2.9242,2.9223,2.9191,2.9167,2.9133,2.9117,2.9076,2.9054,2.9022,2.9001,2.9017,2.894,2.8957,2.8927,2.8928,2.891,2.8911,2.8841,2.8898,2.8899,2.8899,2.8899,0,2.9368,2.933,2.9306,2.9278,2.9235,2.922,2.9176,2.9157,2.9128,2.9095,2.9087,2.9055,2.9032,2.8995,2.8979,2.8929,2.8919,2.8907,2.8903,2.8907,2.8908,2.889,2.8893,2.8897,2.8897,2.8897,2.8898,0,2.9325,2.9308,2.9258,2.9224,2.9215,2.9184,2.9153,2.9124,2.9107,2.9065,2.9054,2.9025,2.8983,2.896,2.8906,2.8895,2.8838,2.8837,2.885,2.8848,2.882,2.8822,2.8734,2.8721,2.8789,2.8788,2.8788,0,2.929,2.9261,2.9225,2.9203,2.9185,2.915,2.9126,2.9109,2.9084,2.9044,2.9019,2.8977,2.8942,2.8873,2.8846,2.8804,2.88,2.8772,2.8793,2.8798,2.8797,2.8799,2.8795,2.8768,2.8767,2.8767,2.8766,0,2.923,2.9223,2.9191,2.9155,2.9128,2.9098,2.9069,2.9051,2.9029,2.9001,2.8959,2.8932,2.8877,2.8834,2.879,2.8767,2.8762,2.876,2.8751,2.8754,2.8762,2.8756,2.8838,2.8762,2.8762,2.8762,2.8763,2.8763,2.9189,2.9162,2.9133,2.9096,2.9073,2.9046,2.9017,2.8997,2.8963,2.8919,2.8911,2.8865,2.883,2.8771,2.8747,2.871,2.8715,2.8702,2.8698,2.8695,2.8693,2.877,2.8702,2.8702,2.8702,2.8702,2.8702,0,2.9127,2.9108,2.9075,2.9035,2.9006,2.9007,2.8975,2.8949,2.891,2.888,2.8846,2.8796,2.8754,2.8724,2.8681,2.8656,2.8652,2.8645,2.8646,2.864,2.8691,2.8703,2.8649,2.8649,2.8649,2.8649,2.8649,2.8649,2.9092,2.9046,2.9036,2.8978,2.8959,2.8916,2.8897,2.8871,2.8847,2.8792,2.8759,2.8741,2.8709,2.8664,2.8624,2.8616,2.8599,2.8592,2.8583,2.8631,2.8637,2.8642,2.8653,2.8589,2.8589,2.8535,2.8535,2.8534]}]]